Vorticity
nan nan nan nan nan nan nan nan nan nan nan nan nan nan nan nan nan nan nan nan nan nan nan nan nan nan nan nan nan nan nan nan nan nan nan nan nan nan nan nan nan nan nan nan nan nan nan nan nan
nan 3 2 5 4 2 5 5 8 22 9 1 2 -3 8 12 12 10 11 16 7 7 1 7 8 6 6 5 5 5 5 5 5 5 6 5 5 6 6 5 5 5 5 5 4 4 4 3 nan
nan 9 8 8 4 1 -3 4 10 3 3 11 6 3 -3 6 8 7 8 13 10 14 9 7 8 7 7 6 6 5 5 5 5 6 6 6 5 6 5 6 5 5 5 4 4 4 3 2 nan
nan 12 4 3 0 2 10 8 4 4 6 7 5 11 6 3 1 2 15 15 8 7 9 9 7 9 6 6 6 6 6 5 6 6 7 7 6 5 6 6 5 6 5 4 4 3 2 3 nan
nan 4 5 5 10 11 7 3 4 6 15 6 15 10 4 7 6 9 12 20 14 8 6 9 10 7 6 6 6 5 6 6 6 7 8 9 8 6 6 6 6 5 5 4 4 3 3 3 nan
nan 5 4 4 7 16 13 9 6 10 10 2 16 13 8 4 5 7 9 14 17 13 9 13 8 8 9 7 5 6 7 7 7 8 8 9 9 6 6 6 6 6 5 4 4 4 4 4 nan
nan 4 3 4 11 6 10 7 11 9 3 1 15 6 2 -2 9 10 9 11 14 11 10 -1 1 12 11 7 5 9 10 8 7 8 8 8 9 8 6 6 6 5 5 5 4 3 4 4 nan
nan 6 9 11 9 10 4 1 8 8 16 6 5 15 9 7 5 6 10 11 9 6 9 5 6 0 2 5 6 3 5 10 11 7 6 5 4 5 4 5 6 5 5 4 4 4 3 3 nan
nan 7 6 10 8 8 5 7 3 17 7 5 3 15 13 13 5 6 7 7 6 7 8 7 6 7 8 3 -1 2 3 3 3 3 2 2 2 3 4 6 6 6 6 4 3 4 3 2 nan
nan 2 3 3 12 6 9 6 1 2 -5 8 7 15 8 8 7 7 7 5 5 11 12 8 7 6 3 6 6 5 -1 -3 2 3 1 4 7 5 5 4 4 3 4 3 3 3 3 3 nan
nan -0 3 6 8 8 5 5 10 17 5 4 7 9 6 6 8 7 7 9 9 8 7 12 13 11 6 5 5 4 8 6 3 5 9 7 7 5 4 2 2 3 2 3 4 5 5 6 nan
nan 4 6 6 2 7 4 6 18 20 13 14 12 6 7 7 8 8 6 6 9 9 9 7 7 9 11 10 6 9 9 7 7 7 8 6 6 6 6 6 7 6 5 7 5 6 9 8 nan
nan 8 6 13 11 7 4 -0 16 23 20 7 12 7 4 7 9 9 8 8 8 6 7 10 9 7 8 8 9 7 6 7 8 8 7 6 6 7 7 7 6 6 8 7 8 8 6 5 nan
nan 9 9 6 4 15 13 11 2 -2 15 13 6 8 7 8 5 7 8 7 8 6 7 9 9 8 7 7 8 7 6 5 7 7 7 7 6 6 7 8 7 8 8 9 7 7 6 7 nan
nan 4 5 0 3 1 15 14 5 10 2 4 8 5 8 8 8 8 7 6 5 6 6 6 6 7 7 8 5 3 6 6 4 9 7 6 6 7 6 7 7 10 7 8 6 7 7 7 nan
nan 10 10 10 5 8 9 4 11 9 10 10 5 6 7 5 9 9 9 6 6 7 6 3 5 6 5 4 5 4 3 6 7 8 8 8 8 8 6 7 9 8 7 7 8 7 7 8 nan
nan 12 15 10 7 11 6 1 6 10 12 12 9 8 7 6 7 6 9 7 6 5 6 5 7 8 7 3 3 5 7 6 8 8 9 10 9 6 6 7 9 7 7 8 7 6 8 9 nan
nan 10 9 13 16 5 1 15 23 14 12 9 7 5 7 9 9 8 7 7 8 6 6 5 6 7 4 4 5 4 9 10 7 8 9 9 8 6 7 8 8 8 7 7 8 7 8 8 nan
nan 7 18 12 8 14 5 15 9 -1 17 22 9 7 5 8 7 9 12 6 8 9 7 7 6 4 2 6 5 6 9 7 7 9 10 8 7 6 5 6 8 8 8 7 8 8 8 6 nan
nan 8 13 9 10 -2 2 8 10 18 5 5 5 9 8 8 7 8 7 9 9 7 6 7 6 5 2 2 8 9 8 7 7 8 9 9 9 9 8 8 10 7 8 10 9 7 6 9 nan
nan 8 5 12 8 3 14 10 11 5 15 8 9 7 9 9 7 9 4 6 8 7 6 7 8 4 3 2 6 7 7 7 9 8 9 8 8 9 11 9 7 10 10 8 7 9 7 7 nan
nan 14 12 5 5 13 6 14 15 10 13 6 8 8 10 8 9 9 7 6 5 8 8 8 6 4 5 7 6 8 6 7 8 9 10 12 8 6 6 8 7 7 9 8 8 8 7 8 nan
nan 8 11 9 11 9 0 8 13 19 9 10 11 9 10 9 8 8 8 8 6 7 8 8 7 7 6 6 2 6 9 8 7 10 10 10 8 8 7 7 8 7 8 11 11 8 6 8 nan
nan 9 6 12 11 11 13 7 6 7 7 20 14 10 9 11 9 7 8 8 8 6 7 8 7 7 7 7 7 5 7 7 7 8 9 8 8 9 9 8 8 10 10 12 9 8 12 11 nan
nan 7 6 9 17 12 14 8 14 9 9 16 14 16 11 9 10 10 9 8 8 8 6 7 8 6 5 6 11 10 6 7 7 8 10 8 6 9 11 9 9 10 10 9 10 11 11 11 nan
nan 5 3 6 8 1 16 17 16 17 10 4 11 17 16 9 10 11 9 9 9 10 9 8 8 7 5 6 7 11 10 4 9 7 6 8 10 13 13 10 11 11 10 9 9 8 8 8 nan
nan 9 4 5 7 15 4 8 19 8 9 10 9 12 14 14 14 12 9 10 10 9 10 9 9 8 8 9 8 6 9 8 8 9 10 9 13 14 12 12 9 9 11 11 8 7 10 9 nan
nan 5 13 7 4 9 10 16 10 5 10 11 10 8 10 13 16 17 16 11 11 11 11 10 9 8 9 10 12 9 7 8 10 13 13 12 11 10 12 11 10 9 8 8 9 11 10 8 nan
nan 9 6 9 7 1 11 12 4 17 11 5 6 10 7 10 12 12 17 17 13 11 11 11 10 8 7 10 9 11 11 10 12 13 10 10 11 11 11 10 10 10 10 10 8 8 9 8 nan
nan nan nan nan nan nan nan nan nan nan nan nan nan nan nan nan nan nan nan nan nan nan nan nan nan nan nan nan nan nan nan nan nan nan nan nan nan nan nan nan nan nan nan nan nan nan nan nan nan
CAPE
0 0 0 0 0 0 0 0 0 0 146 247 357 238 185 102 211 393 160 0 1 247 1434 1678 1465 1483 1422 1216 979 857 810 766 748 647 662 709 789 1050 1039 836 450 334 122 2 0 0 0 0 0
0 0 0 0 0 0 0 0 2 46 312 289 61 210 5 0 838 1101 592 90 0 956 1324 1714 1530 1460 1350 1083 945 831 735 694 634 597 602 668 795 1033 1074 830 409 332 191 1 0 0 0 0 0
0 0 0 0 0 0 0 0 0 3 193 351 337 93 318 703 853 1164 1257 1274 1584 1244 1237 1610 1380 1218 1118 929 837 740 709 567 531 567 738 821 945 1145 1122 833 376 362 173 13 0 0 0 0 0
0 0 0 0 0 0 1 4 0 0 100 349 225 443 34 4 1117 1517 1409 1276 1677 1128 1343 803 807 847 911 905 835 737 499 470 506 602 1031 1246 1202 1182 1067 775 408 378 141 0 0 0 0 0 0
0 0 0 0 0 0 5 0 0 0 252 223 142 14 24 0 1224 1066 1580 1185 1355 560 700 550 506 626 813 884 864 612 510 517 587 919 1194 1272 1352 1113 946 730 319 237 121 0 0 0 0 0 0
0 0 0 0 0 2 1 0 0 18 123 54 30 0 5 734 536 809 599 811 1188 592 337 267 286 355 516 619 572 462 480 573 619 740 969 1259 1170 1021 907 384 230 171 84 6 0 0 0 0 0
0 0 0 0 3 2 4 0 37 271 35 77 0 3 614 526 221 311 155 454 653 174 9 5 7 32 65 119 209 340 428 468 450 398 506 641 680 572 378 271 204 135 74 19 1 0 0 0 0
0 0 0 0 5 0 8 1 11 42 5 0 22 390 78 194 227 156 26 277 381 196 48 10 0 15 3 1 98 184 213 254 275 210 178 204 249 293 270 209 173 106 55 2 0 0 0 0 0
0 0 0 15 9 5 0 0 0 0 236 218 788 1042 861 629 380 348 76 39 152 161 57 40 10 9 8 10 61 129 242 250 243 196 130 100 101 77 77 177 154 113 58 5 0 0 0 0 0
0 0 0 0 0 0 0 0 0 51 175 0 290 474 577 808 711 361 154 2 2 1 8 26 17 3 5 0 0 1 99 109 201 97 28 3 29 30 83 118 103 85 35 0 0 0 0 0 0
0 0 0 0 0 0 0 0 0 5 0 0 38 578 482 410 339 98 13 9 5 2 0 0 2 0 0 11 29 38 58 81 124 238 163 115 57 59 92 23 10 1 0 0 0 0 0 0 0
0 0 0 0 0 0 0 4 175 126 2 0 56 640 404 393 268 6 5 4 3 2 5 2 3 1 1 0 1 7 30 95 142 223 251 248 191 103 46 33 4 0 0 0 0 0 0 0 0
0 0 0 0 6 0 0 19 158 20 51 237 772 725 612 489 46 3 6 6 4 4 8 8 1 0 0 0 2 0 7 112 163 202 263 278 226 165 76 41 4 0 0 0 0 0 0 0 0
0 0 0 18 30 41 5 86 15 1 16 921 828 725 549 173 0 5 5 5 6 6 3 4 3 0 0 0 0 0 19 36 89 253 250 249 217 355 121 172 59 19 0 0 0 0 0 0 0
0 0 0 0 0 1 129 69 7 0 0 396 703 591 324 161 0 3 7 4 3 4 4 8 7 0 0 0 0 0 10 66 169 273 293 253 283 341 220 189 195 52 0 0 0 0 0 0 0
0 0 1 5 0 2 88 62 13 0 0 312 413 403 352 74 26 0 2 4 6 1 0 1 3 1 0 0 0 8 34 135 147 231 243 227 328 309 280 136 150 44 6 0 0 0 0 0 0
0 0 9 24 3 41 82 34 0 0 5 291 110 78 560 217 91 17 0 1 1 0 2 11 14 6 0 0 0 1 77 99 82 43 229 304 306 295 220 208 95 122 2 0 0 0 0 0 0
1 0 19 12 39 40 30 21 21 143 131 498 189 10 594 318 98 66 9 0 0 0 1 6 5 0 0 0 0 38 74 79 100 91 304 413 368 179 243 170 165 132 14 0 0 0 0 0 0
2 0 0 14 13 9 52 21 34 72 45 302 531 172 380 809 271 96 44 5 0 0 1 1 0 2 0 0 0 18 62 111 102 62 167 427 393 417 333 197 204 140 32 0 0 0 0 0 0
0 0 0 21 15 10 6 1 14 111 153 307 444 619 528 638 494 145 59 44 0 0 0 0 0 0 3 10 4 43 1 18 88 43 141 445 552 418 351 344 300 164 1 0 0 0 0 0 0
0 0 0 6 0 2 5 0 2 1 94 165 565 898 400 817 581 272 111 60 0 0 0 0 0 0 0 72 35 17 0 0 0 37 68 385 372 278 291 425 282 91 25 0 0 0 0 0 0
15 9 0 0 20 20 3 7 23 7 23 163 343 867 558 536 746 372 201 142 137 34 11 0 0 7 5 17 34 7 21 11 1 34 77 346 306 113 23 6 2 15 0 0 0 0 0 0 0
0 10 3 4 0 21 19 2 6 18 27 98 341 391 812 529 750 640 369 234 245 205 94 0 0 7 80 74 235 144 151 38 44 69 154 343 102 18 3 1 0 0 0 0 0 0 0 0 0
0 9 0 0 0 17 11 16 53 29 27 59 160 226 648 620 905 788 605 492 339 261 303 197 238 241 236 186 252 579 546 351 113 139 178 334 128 40 6 2 0 2 0 0 0 0 0 0 0
0 5 22 60 79 94 16 42 166 3 0 101 57 142 441 668 601 865 776 629 622 438 353 414 383 422 435 578 754 687 637 865 294 399 528 319 231 68 36 1 0 0 0 0 0 0 0 0 0
0 0 56 16 33 126 79 62 35 22 4 9 0 3 212 451 700 597 810 751 660 729 620 505 502 472 526 567 710 984 768 704 700 531 528 452 298 137 37 14 0 0 0 0 0 0 0 0 0
0 36 16 59 23 74 138 60 86 11 0 0 0 32 169 194 461 825 540 1049 983 906 963 923 816 649 633 628 698 734 643 656 827 631 829 615 381 40 0 0 0 0 0 0 0 0 0 0 0
0 1 65 67 47 46 67 31 17 0 0 0 0 52 236 160 242 326 828 817 1226 1258 1314 1272 1133 1086 1076 1161 948 833 718 808 672 1019 847 247 14 0 0 0 0 0 0 0 0 0 0 0 0
0 0 48 68 82 139 145 62 0 1 0 0 0 8 57 218 384 321 515 958 1070 1423 1587 1789 1817 1696 1710 1532 1165 954 1044 1131 567 491 226 122 0 0 0 0 0 0 0 0 0 0 0 0 0
0 16 22 124 40 154 213 103 11 28 6 1 7 0 91 170 306 467 468 596 1078 1294 1463 1989 2054 1996 1805 1736 1418 1090 683 556 192 48 3 0 0 0 0 0 0 0 0 0 0 0 0 0 0